Theta_e
307 307 307 307 307 307 306 306 306 306 307 308 308 308 308 308 307 306 305 303 304 303 306 309 311 313 314 310 314 316 317 316 315 313 311 310 311 313 316 317 319 321 327 355 356
306 306 306 306 304 300 301 304 307 307 308 308 307 308 307 307 307 306 308 308 309 308 310 314 315 314 310 309 312 317 320 318 316 315 313 311 312 313 318 320 320 319 339 354 357
306 306 306 306 306 305 305 306 307 307 308 308 308 307 307 307 302 304 314 315 318 310 315 314 315 314 312 311 310 316 322 318 319 318 314 315 317 318 319 320 319 318 353 354 355
305 305 305 305 305 306 306 306 307 307 307 307 307 307 308 307 301 314 318 316 307 308 320 314 309 314 313 311 309 312 316 321 321 320 321 320 319 320 319 318 319 318 352 353 354
305 305 305 305 305 305 305 306 306 307 307 307 307 307 308 307 306 305 306 304 307 309 315 312 309 310 314 312 311 312 312 314 318 320 321 320 322 321 320 320 319 318 321 353 352
304 304 304 304 305 305 302 303 303 306 306 308 308 308 309 309 307 306 306 307 307 307 308 311 310 308 309 311 313 312 314 314 313 314 320 323 323 320 321 320 318 318 317 325 346
304 301 302 304 305 305 301 301 305 306 306 309 309 309 310 308 308 309 308 308 308 307 308 308 311 313 312 311 311 313 313 313 313 315 315 316 316 319 321 319 317 317 318 315 317
300 298 298 302 303 302 302 305 308 308 309 310 310 309 311 309 310 310 310 308 309 309 308 309 308 309 314 314 317 317 314 314 314 314 316 315 317 318 318 317 317 317 317 319 316
299 297 298 302 302 302 304 307 308 307 310 309 311 310 311 311 312 310 309 309 309 310 309 310 308 308 313 316 315 316 320 315 315 314 316 316 318 317 318 317 316 316 315 318 315
301 299 300 301 301 303 306 309 307 307 311 310 312 310 309 310 309 309 311 311 310 311 312 308 308 309 310 310 316 317 319 319 318 316 316 318 318 318 318 317 317 315 315 316 316
302 300 301 302 303 305 307 309 303 306 306 307 307 309 308 309 311 311 312 311 312 314 313 310 306 308 308 310 310 314 318 318 316 317 317 318 319 318 318 317 316 315 314 314 315
299 300 302 302 305 307 308 307 307 308 308 308 308 308 310 311 312 312 312 311 311 314 313 311 312 310 308 313 311 311 315 319 319 317 316 318 319 318 317 319 318 315 315 314 315
298 301 303 303 305 308 307 307 309 310 307 308 308 311 311 311 312 312 312 312 313 313 312 313 310 311 313 312 313 314 317 319 321 320 319 316 318 318 317 317 318 316 316 314 315
299 302 303 304 306 307 307 307 310 310 308 310 309 310 310 311 313 313 313 313 312 312 312 312 310 310 312 314 311 311 312 316 320 321 322 317 318 317 318 318 317 317 314 315 315
300 303 305 305 305 306 307 308 308 308 307 309 309 309 309 310 311 314 313 314 315 314 315 312 311 311 313 314 315 315 310 314 316 317 318 319 319 317 317 318 317 317 315 314 314
302 305 306 307 306 308 308 308 310 307 309 310 309 310 310 310 310 311 313 314 314 317 316 316 313 312 314 315 316 315 316 312 311 311 318 318 319 319 318 319 319 317 315 315 314
303 306 308 307 308 309 309 305 310 308 310 310 310 310 310 311 311 312 312 316 318 317 317 316 315 312 313 316 316 316 316 315 313 315 318 316 319 318 319 319 320 318 317 316 314
304 309 309 310 310 309 309 305 310 310 311 310 311 310 311 312 312 312 312 318 315 314 320 321 320 317 314 315 316 316 315 317 324 323 317 317 321 320 319 319 319 319 318 316 314
305 310 311 310 309 308 305 305 307 311 311 311 311 312 312 312 313 313 313 317 316 314 315 319 320 317 317 315 315 319 319 316 319 322 319 317 320 320 319 321 318 317 317 316 315
304 307 310 308 310 309 306 310 309 310 311 311 313 313 314 313 315 313 314 315 314 314 312 315 316 317 318 319 316 319 316 320 319 324 324 319 319 320 319 333 339 328 317 315 314
305 307 308 309 309 303 304 306 310 312 311 312 313 313 313 318 315 315 314 313 314 314 313 313 316 317 319 320 320 321 319 319 318 322 321 321 319 327 333 335 339 334 324 320 330
301 306 307 307 305 303 307 309 310 311 309 312 311 313 316 316 317 316 316 313 313 314 316 313 312 314 314 317 317 319 319 316 317 319 322 318 317 330 332 341 339 339 341 344 345
301 303 306 305 303 304 306 308 310 310 309 311 311 314 313 314 314 315 314 312 314 314 315 314 315 314 320 318 318 321 320 318 315 321 325 324 330 333 340 342 340 343 344 344 343
301 303 300 299 301 305 305 307 309 309 309 309 313 312 312 313 312 314 316 313 312 313 316 316 314 313 316 319 317 321 322 319 314 321 328 330 333 335 341 343 340 342 341 342 341
298 301 302 300 302 303 304 307 309 309 309 310 313 312 312 313 313 316 313 312 313 313 312 313 316 314 313 313 314 316 320 321 317 322 328 329 331 333 333 341 341 340 337 335 332
299 300 300 301 302 303 304 306 308 308 307 311 312 310 310 312 312 312 312 312 315 314 311 306 314 317 316 315 316 319 320 322 319 323 323 326 328 330 330 334 336 333 331 329 327
301 303 303 302 302 303 304 306 307 306 307 309 309 310 311 310 309 309 309 310 312 312 308 308 312 317 323 319 318 322 322 322 321 321 323 326 327 329 332 333 331 327 323 321 319
Wind_Speed
23 23 23 23 24 24 24 25 25 25 24 23 23 23 24 26 31 30 10 18 11 8 13 17 15 7 12 4 5 3 3 13 13 12 9 4 4 5 4 12 13 11 9 16 28
25 25 26 26 27 27 27 26 25 24 23 22 21 21 21 23 29 24 15 6 3 9 14 9 4 3 3 6 5 6 9 16 4 11 7 8 6 5 8 14 13 16 6 35 41
26 26 27 27 28 29 29 29 28 27 26 24 21 19 18 19 7 7 6 9 8 21 23 19 8 3 5 4 8 6 16 21 6 9 9 13 17 4 10 17 7 10 16 26 27
26 26 27 28 29 30 31 30 29 28 27 23 20 18 16 8 7 2 8 13 33 23 8 15 6 5 6 10 7 7 11 18 3 6 10 21 11 15 5 9 13 10 17 20 24
27 28 28 29 30 32 32 31 29 25 24 21 17 13 7 3 13 32 25 29 24 17 12 13 12 8 7 5 6 16 14 5 11 13 13 12 19 10 19 14 15 7 8 24 24
29 30 31 31 33 33 34 32 29 24 23 18 14 8 3 9 15 20 17 20 23 17 9 6 6 9 6 7 12 4 12 20 14 14 12 22 22 6 23 5 11 6 3 9 21
32 34 35 34 34 34 32 30 27 28 25 15 8 6 8 17 16 28 29 28 25 17 5 16 12 6 8 9 13 12 15 15 16 21 16 6 17 30 24 5 11 10 7 5 9
36 38 42 39 36 32 29 26 26 23 14 5 7 8 8 23 25 30 20 27 28 21 25 21 20 10 17 6 7 2 4 13 25 12 17 12 28 26 9 8 11 10 7 5 8
38 40 44 38 34 29 27 25 21 19 4 1 8 6 9 10 9 21 19 17 27 17 21 15 13 10 5 12 4 4 9 14 12 14 9 18 23 20 8 9 10 8 8 5 4
38 44 43 36 30 25 24 24 21 7 5 3 1 3 6 7 21 29 27 18 12 5 1 6 5 4 6 10 15 15 15 10 14 7 15 20 19 11 8 11 10 8 9 7 6
37 45 39 32 25 22 23 16 5 4 3 6 16 15 22 21 21 17 20 8 2 3 4 3 4 11 10 11 16 13 14 10 8 7 13 18 21 13 13 6 9 9 9 9 9
42 46 37 29 22 16 17 3 6 2 11 17 13 9 19 9 11 16 16 4 2 6 4 1 9 10 11 15 18 17 17 16 14 10 9 16 22 13 10 16 12 10 10 10 7
46 47 37 30 16 9 25 8 3 9 3 9 7 6 7 2 12 13 6 5 7 9 8 11 8 9 8 14 14 16 16 13 14 12 11 8 14 7 11 10 14 10 10 9 12
49 47 36 31 3 20 13 10 10 4 4 6 2 4 9 2 5 2 5 0 3 5 6 11 17 15 13 13 17 15 13 16 12 12 7 6 10 9 18 15 13 17 11 12 12
50 44 28 15 11 5 16 24 16 4 4 17 7 7 21 9 14 1 2 1 10 12 1 6 10 13 11 17 11 13 14 12 14 12 4 14 3 8 9 16 15 17 13 12 11
50 37 22 5 9 17 23 29 2 5 4 9 15 21 20 14 19 10 9 2 4 6 8 10 5 6 8 7 4 11 8 14 10 3 8 16 7 5 6 21 25 12 12 13 10
53 27 11 10 6 21 26 6 5 4 10 9 23 21 22 9 16 11 14 5 4 5 1 3 14 10 7 6 3 6 1 4 5 6 6 8 7 10 10 10 14 17 12 10 10
52 18 8 14 18 20 13 5 5 7 13 14 16 18 7 13 13 10 11 1 3 5 3 3 4 2 10 7 8 10 9 4 5 7 8 9 9 8 20 11 12 19 17 13 12
42 17 5 16 21 12 5 4 4 5 11 15 19 7 10 15 6 8 7 2 4 6 3 4 4 3 9 12 10 5 9 10 2 3 3 3 5 4 8 4 8 11 10 11 10
20 12 9 23 8 5 5 4 3 4 13 10 12 7 15 16 10 12 4 2 7 8 5 3 6 5 7 3 12 5 4 7 4 4 5 6 13 6 5 5 8 8 10 10 9
7 4 21 16 7 5 2 4 7 10 10 9 7 8 7 6 9 6 6 4 5 6 7 3 3 3 2 4 11 4 3 2 5 4 4 8 5 3 3 5 7 4 9 10 14
10 4 20 19 4 2 4 9 8 15 12 5 6 4 3 7 7 4 5 6 8 12 8 3 2 5 9 4 3 2 6 8 4 6 1 3 3 6 8 3 3 11 17 19 24
5 3 9 12 3 4 6 9 8 13 15 8 5 7 7 8 8 6 6 4 9 11 3 3 2 5 1 2 2 2 8 6 4 1 4 2 3 7 6 9 4 21 18 23 25
3 4 4 4 2 2 5 6 14 9 10 13 6 8 14 13 7 10 9 5 18 15 19 11 4 7 4 1 1 5 5 10 6 3 3 2 3 6 6 11 15 19 18 22 23
4 2 2 5 5 11 10 6 15 13 4 6 4 14 19 10 16 5 20 23 13 7 2 1 5 7 14 15 12 14 11 5 10 9 5 4 3 2 3 9 15 18 19 21 23
3 3 3 4 9 6 6 8 13 20 4 7 14 21 17 11 11 25 23 20 6 5 4 1 3 3 9 16 13 10 12 4 8 12 7 4 1 1 5 4 14 20 23 23 23
6 5 1 5 5 5 2 11 16 14 10 9 18 18 20 13 23 27 23 23 19 7 5 3 2 2 3 11 10 5 11 12 6 13 10 5 4 4 6 11 14 21 23 25 25
Wind_Direction
350 348 346 343 338 334 332 330 328 326 325 324 324 323 322 322 318 315 255 256 253 282 228 268 284 258 225 226 229 171 192 231 224 208 242 285 243 236 274 259 284 243 186 179 164
350 347 343 341 339 337 334 328 323 320 319 319 320 320 324 327 319 285 305 274 321 278 261 233 250 204 201 200 213 190 219 229 177 212 236 262 236 336 326 313 306 308 208 149 153
347 343 339 336 333 332 328 324 322 321 320 320 320 320 325 333 324 252 75 127 349 328 247 226 235 204 223 183 200 209 233 230 256 238 232 258 274 280 293 285 282 325 157 145 157
345 341 336 334 332 329 324 322 321 321 319 315 316 319 325 333 300 283 218 270 320 326 242 210 224 199 207 213 197 258 239 239 219 250 235 257 290 268 239 266 282 316 171 157 156
342 338 335 333 329 327 323 320 318 318 310 309 308 314 330 275 247 292 287 297 324 328 183 191 200 194 209 209 211 229 238 261 241 253 269 271 264 284 271 271 281 309 283 168 169
341 338 337 333 330 327 329 327 325 317 313 300 294 297 239 270 273 303 318 310 290 298 299 234 208 207 271 237 237 235 215 246 246 253 244 250 271 283 263 272 282 270 237 235 178
342 344 340 335 331 330 334 333 336 336 329 297 270 222 239 251 280 302 295 284 285 268 252 252 265 247 211 264 282 269 278 271 251 239 247 253 269 243 255 257 268 266 209 218 229
346 348 346 339 336 338 338 337 339 339 340 318 207 190 251 274 302 295 304 295 292 275 231 249 237 248 253 282 296 303 242 244 250 231 238 190 250 256 254 207 253 259 255 199 200
345 348 346 338 339 341 336 338 333 337 351 145 150 183 265 299 266 296 280 273 277 262 235 231 224 225 218 231 282 245 247 235 260 223 222 206 247 255 238 203 231 251 265 252 203
342 348 345 340 339 341 334 336 337 331 93 116 265 288 261 291 290 299 303 288 255 216 283 205 203 177 215 201 215 221 234 248 245 209 222 238 244 241 233 197 215 236 249 237 216
342 349 345 339 342 347 335 334 6 337 277 241 274 246 274 286 303 302 328 315 87 72 163 135 190 233 237 242 243 253 267 258 253 221 212 230 240 246 226 221 209 217 234 242 222
348 350 346 339 340 348 343 322 269 248 311 316 292 267 269 255 311 316 324 346 47 255 204 163 215 222 239 249 232 239 254 267 274 263 224 234 237 229 218 227 220 203 222 225 227
349 351 348 338 337 355 333 304 333 347 283 303 251 278 269 354 310 293 299 350 285 267 179 227 232 218 236 256 257 233 238 243 254 272 291 236 249 223 235 232 214 220 212 208 208
349 350 347 342 24 330 306 344 306 20 41 285 317 345 326 180 305 315 47 185 279 279 277 244 242 236 229 238 239 243 245 258 262 246 236 178 247 211 219 209 211 217 210 214 219
348 348 337 346 297 289 319 331 309 63 358 337 18 306 335 1 334 275 28 146 264 253 346 240 201 202 221 229 238 260 227 232 255 263 261 267 275 246 194 214 217 218 209 202 205
345 346 332 333 300 310 325 320 236 46 294 321 355 329 331 331 343 326 318 105 303 274 244 252 271 188 183 181 247 237 300 235 244 234 235 236 200 268 192 201 218 214 206 191 188
342 342 320 293 268 324 322 344 37 68 343 320 334 329 321 344 331 314 336 10 337 324 305 268 227 213 191 153 188 216 111 185 227 200 226 191 211 244 265 222 202 204 200 193 172
341 341 318 288 304 308 319 36 42 332 302 316 325 320 301 358 321 311 322 52 321 20 309 331 280 213 194 194 165 216 188 172 202 157 219 164 205 234 232 247 225 194 190 188 173
343 354 357 321 323 300 65 38 217 285 336 325 328 320 313 333 320 333 331 330 348 27 15 309 290 249 253 214 185 181 191 201 317 187 93 199 227 289 253 254 219 191 166 186 173
340 334 320 337 11 73 72 255 244 301 319 346 314 299 312 332 330 342 300 46 360 34 342 284 287 217 286 184 193 185 152 157 255 195 161 184 214 224 204 211 270 191 183 180 153
0 9 355 356 15 43 121 250 306 334 339 323 309 299 305 307 318 306 273 312 21 1 345 300 266 318 317 228 171 150 134 170 200 257 156 167 240 320 319 247 219 257 189 135 115
348 344 11 6 46 13 338 303 314 339 351 349 306 338 268 310 291 269 257 285 342 357 306 196 239 264 240 275 19 144 161 191 140 211 285 175 251 313 253 152 205 103 119 119 117
321 273 358 46 58 339 302 311 294 335 341 3 295 5 323 309 312 237 262 261 317 330 278 161 218 299 213 66 134 169 182 165 137 114 176 123 284 340 100 101 145 116 115 115 115
356 348 335 27 125 0 318 287 346 343 307 345 286 343 322 314 279 286 270 302 301 289 275 227 198 210 229 48 310 279 241 161 153 121 151 62 26 357 99 113 128 112 116 114 112
25 339 16 314 329 320 308 323 345 351 321 321 297 329 324 314 308 259 309 308 295 250 80 214 243 232 251 255 257 253 259 176 181 144 135 157 53 319 334 142 132 116 109 105 105
51 6 343 272 287 309 329 348 345 337 306 302 332 316 312 297 283 303 306 301 275 181 149 201 267 256 269 240 225 227 227 188 178 136 110 146 223 334 235 199 118 118 113 107 106
350 304 241 274 310 328 321 337 330 337 299 295 313 311 311 301 305 288 278 270 258 235 195 198 244 287 307 147 173 231 228 189 184 155 141 157 173 139 218 139 127 115 107 106 105